N6AC Weather Reports


time (UTC)temp
C
wind
direction
speed
KPH
gust
KPH
rain 1hr
cm
rain 24hr
cm
rain mn
cm
humidity
%
barometer
mb
20260507045219 13 338 4.8 4.8 0.00 0.00 0.00 76 1015.1
20260507044714 13 90 1.6 1.6 0.00 0.00 0.00 76 1015.1
20260507044209 13 315 1.6 1.6 0.00 0.00 0.00 75 1015.1
20260507043659 13 293 0.0 0.0 0.00 0.00 0.00 75 1015.1
20260507043154 13 338 3.2 3.2 0.00 0.00 0.00 74 1015.1
20260507042629 13 338 3.2 3.2 0.00 0.00 0.00 73 1015.1
20260507042124 13 68 1.6 1.6 0.00 0.00 0.00 73 1015.1
20260507041619 13 270 3.2 3.2 0.00 0.00 0.00 73 1015.1
20260507041114 13 315 3.2 3.2 0.00 0.00 0.00 73 1015.1
20260507040609 13 203 1.6 1.6 0.00 0.00 0.00 72 1015.1
20260507040059 13 113 1.6 1.6 0.00 0.00 0.00 73 1014.8
20260507035554 13 158 1.6 1.6 0.00 0.00 0.00 73 1014.8
20260507035049 13 45 1.6 1.6 0.00 0.00 0.00 73 1014.8
20260507034544 14 135 0.0 0.0 0.00 0.00 0.00 70 1014.5
20260507034039 14 180 0.0 0.0 0.00 0.00 0.00 70 1014.5
20260507033024 14 180 0.0 0.0 0.00 0.00 0.00 69 1014.7
20260507032014 14 0 3.2 3.2 0.00 0.00 0.00 68 1014.5
20260507031509 14 315 3.2 3.2 0.00 0.00 0.00 68 1014.0
20260507030959 15 248 4.8 4.8 0.00 0.00 0.00 68 1014.0
20260507030454 15 338 6.4 6.4 0.00 0.00 0.00 66 1014.0
20260507025949 15 338 8.0 8.0 0.00 0.00 0.00 67 1014.2
20260507025444 15 270 8.0 8.0 0.00 0.00 0.00 67 1014.2
20260507024939 15 0 8.0 8.0 0.00 0.00 0.00 67 1014.2
20260507023925 15 338 8.0 8.0 0.00 0.00 0.00 66 1014.2
20260507023419 15 315 6.4 6.4 0.00 0.00 0.00 67 1014.0
20260507022914 15 23 8.0 8.0 0.00 0.00 0.00 68 1014.0
20260507022409 15 338 9.7 9.7 0.00 0.00 0.00 69 1014.1
20260507021859 15 293 6.4 6.4 0.00 0.00 0.00 70 1014.1
20260507021355 15 270 8.0 8.0 0.00 0.00 0.00 68 1013.9
20260507020849 15 338 6.4 6.4 0.00 0.00 0.00 65 1013.9
20260507020344 15 315 8.0 8.0 0.00 0.00 0.00 66 1013.9
20260507014824 15 270 6.4 6.4 0.00 0.00 0.00 69 1013.9
20260507014319 15 225 8.0 8.0 0.00 0.00 0.00 68 1013.9
20260507013814 15 270 9.7 9.7 0.00 0.00 0.00 67 1013.8
20260507013304 15 248 6.4 6.4 0.00 0.00 0.00 67 1013.8
20260507012759 15 225 8.0 8.0 0.00 0.00 0.00 66 1013.8
20260507012254 16 270 9.7 9.7 0.00 0.00 0.00 64 1013.8
20260507011749 16 338 8.0 8.0 0.00 0.00 0.00 63 1013.8
20260507011244 16 248 11.3 11.3 0.00 0.00 0.00 63 1013.7
20260507010734 16 293 9.7 9.7 0.00 0.00 0.00 65 1013.7
20260507010229 16 315 9.7 9.7 0.00 0.00 0.00 64 1013.7
20260507005724 16 315 8.0 8.0 0.00 0.00 0.00 63 1013.7
20260507005219 17 293 9.7 9.7 0.00 0.00 0.00 62 1013.7
20260507004710 17 0 9.7 9.7 0.00 0.00 0.00 62 1013.7
20260507004205 17 315 8.0 8.0 0.00 0.00 0.00 64 1013.7
20260507003659 17 225 6.4 6.4 0.00 0.00 0.00 64 1013.7
20260507003154 17 248 6.4 6.4 0.00 0.00 0.00 62 1013.7
20260507002139 17 293 9.7 9.7 0.00 0.00 0.00 64 1013.7
20260507001635 17 0 8.0 8.0 0.00 0.00 0.00 62 1013.7
20260507001129 17 225 11.3 11.3 0.00 0.00 0.00 61 1013.6
20260507000625 17 315 8.0 8.0 0.00 0.00 0.00 65 1013.6
20260507000119 17 0 8.0 8.0 0.00 0.00 0.00 65 1013.7
20260506235610 17 45 8.0 8.0 0.00 0.00 0.00 67 1013.7
20260506235105 17 0 8.0 8.0 0.00 0.00 0.00 67 1013.8
20260506234600 18 270 14.5 14.5 0.00 0.00 0.00 65 1013.8
20260506234055 18 315 12.9 12.9 0.00 0.00 0.00 61 1013.8
20260506233455 18 338 8.0 8.0 0.00 0.00 0.00 62 1013.8
20260506232949 18 270 8.0 8.0 0.00 0.00 0.00 61 1013.8
20260506231935 18 270 9.7 9.7 0.00 0.00 0.00 64 1013.8
20260506230925 18 270 11.3 11.3 0.00 0.00 0.00 61 1014.0
20260506230415 18 0 9.7 9.7 0.00 0.00 0.00 61 1014.0
20260506225910 18 45 12.9 12.9 0.00 0.00 0.00 60 1014.1
20260506224900 18 180 9.7 9.7 0.00 0.00 0.00 59 1014.3
20260506224355 18 248 9.7 9.7 0.00 0.00 0.00 60 1014.3
20260506223750 18 225 11.3 11.3 0.00 0.00 0.00 60 1014.4
20260506223230 19 225 12.9 12.9 0.00 0.00 0.00 59 1014.4
20260506222215 19 338 11.3 11.3 0.00 0.00 0.00 55 1014.6
20260506221710 19 225 9.7 9.7 0.00 0.00 0.00 54 1014.6
20260506221205 19 293 14.5 14.5 0.00 0.00 0.00 52 1014.8
20260506220700 18 180 8.0 8.0 0.00 0.00 0.00 55 1014.8
20260506220150 20 248 9.7 9.7 0.00 0.00 0.00 54 1014.9
20260506215645 20 180 9.7 9.7 0.00 0.00 0.00 52 1014.9
20260506215140 20 248 9.7 9.7 0.00 0.00 0.00 52 1014.9
20260506214635 20 293 8.0 8.0 0.00 0.00 0.00 50 1015.0
20260506212105 19 113 8.0 8.0 0.00 0.00 0.00 57 1015.1
20260506211600 19 225 8.0 8.0 0.00 0.00 0.00 58 1015.1
20260506211050 19 338 9.7 9.7 0.00 0.00 0.00 59 1015.3
20260506210545 18 135 8.0 8.0 0.00 0.00 0.00 57 1015.3
20260506210040 18 158 9.7 9.7 0.00 0.00 0.00 55 1015.2
20260506205535 19 158 6.4 6.4 0.00 0.00 0.00 53 1015.2
20260506204520 17 203 8.0 8.0 0.00 0.00 0.00 53 1015.3
20260506204015 18 180 9.7 9.7 0.00 0.00 0.00 53 1015.3
20260506203005 18 203 9.7 9.7 0.00 0.00 0.00 53 1015.5
20260506202455 18 135 6.4 6.4 0.00 0.00 0.00 53 1015.6
20260506201950 18 158 9.7 9.7 0.00 0.00 0.00 53 1015.6
20260506201445 18 158 9.7 9.7 0.00 0.00 0.00 53 1015.8
20260506200940 18 225 6.4 6.4 0.00 0.00 0.00 56 1015.8
20260506200435 18 180 11.3 11.3 0.00 0.00 0.00 56 1015.8
20260506194915 18 158 8.0 8.0 0.00 0.00 0.00 50 1015.9
20260506194410 18 225 6.4 6.4 0.00 0.00 0.00 52 1015.9
20260506193355 18 113 9.7 9.7 0.00 0.00 0.00 52 1016.1
20260506192850 17 135 11.3 11.3 0.00 0.00 0.00 56 1016.1
20260506192345 19 90 8.0 8.0 0.00 0.00 0.00 51 1016.1
20260506191840 20 90 8.0 8.0 0.00 0.00 0.00 51 1016.1
20260506191315 19 203 11.3 11.3 0.00 0.00 0.00 52 1016.2
20260506190805 18 158 9.7 9.7 0.00 0.00 0.00 53 1016.2
20260506190205 18 158 11.3 11.3 0.00 0.00 0.00 52 1016.2
20260506185625 18 158 12.9 12.9 0.00 0.00 0.00 53 1016.2
20260506184950 18 113 6.4 6.4 0.00 0.00 0.00 54 1016.4
20260506184445 18 180 9.7 9.7 0.00 0.00 0.00 54 1016.4
20260506183935 18 90 9.7 9.7 0.00 0.00 0.00 57 1016.4
20260506182905 19 113 8.0 8.0 0.00 0.00 0.00 57 1016.4
20260506182325 18 113 11.3 11.3 0.00 0.00 0.00 59 1016.4
20260506181820 19 135 12.9 12.9 0.00 0.00 0.00 56 1016.4
20260506181315 18 203 9.7 9.7 0.00 0.00 0.00 58 1016.5
20260506180805 18 203 8.0 8.0 0.00 0.00 0.00 57 1016.5
20260506180300 18 113 8.0 8.0 0.00 0.00 0.00 57 1016.5
20260506175755 18 135 11.3 11.3 0.00 0.00 0.00 59 1016.4
20260506175250 17 180 8.0 8.0 0.00 0.00 0.00 59 1016.4
20260506174235 17 225 9.7 9.7 0.00 0.00 0.00 62 1016.4
20260506173225 18 158 9.7 9.7 0.00 0.00 0.00 59 1016.3
20260506172720 17 135 6.4 6.4 0.00 0.00 0.00 61 1016.3
20260506172210 17 68 9.7 9.7 0.00 0.00 0.00 62 1016.4
20260506171200 18 203 9.7 9.7 0.00 0.00 0.00 60 1016.2
20260506170655 17 180 8.0 8.0 0.00 0.00 0.00 63 1016.2
20260506170150 17 113 8.0 8.0 0.00 0.00 0.00 61 1016.2
20260506165640 17 135 9.7 9.7 0.00 0.00 0.00 60 1016.2
20260506165135 16 158 8.0 8.0 0.00 0.00 0.00 63 1016.2
20260506164630 18 158 8.0 8.0 0.00 0.00 0.00 60 1016.2
20260506164125 18 113 6.4 6.4 0.00 0.00 0.00 62 1016.2
20260506163615 17 113 8.0 8.0 0.00 0.00 0.00 63 1016.1
20260506162605 17 180 3.2 3.2 0.00 0.00 0.00 65 1016.0
20260506162100 16 180 6.4 6.4 0.00 0.00 0.00 67 1016.0
20260506161555 16 113 8.0 8.0 0.00 0.00 0.00 66 1016.0
20260506161045 17 113 4.8 4.8 0.00 0.00 0.00 66 1016.1
20260506160540 16 180 8.0 8.0 0.00 0.00 0.00 67 1016.1
20260506155026 16 113 6.4 6.4 0.00 0.00 0.00 69 1016.0
20260506154515 16 90 8.0 8.0 0.00 0.00 0.00 72 1016.0
20260506154010 16 113 6.4 6.4 0.00 0.00 0.00 72 1016.0
20260506153000 15 158 6.4 6.4 0.00 0.00 0.00 74 1016.1
20260506152455 15 113 6.4 6.4 0.00 0.00 0.00 73 1016.2
20260506151950 15 113 4.8 4.8 0.00 0.00 0.00 76 1016.2
20260506151440 15 113 3.2 3.2 0.00 0.00 0.00 75 1016.0
20260506150935 15 158 4.8 4.8 0.00 0.00 0.00 77 1016.0
20260506145925 15 135 6.4 6.4 0.00 0.00 0.00 79 1016.2
20260506145420 14 158 6.4 6.4 0.00 0.00 0.00 83 1016.2
20260506144910 15 135 4.8 4.8 0.00 0.00 0.00 81 1016.0
20260506144405 14 203 4.8 4.8 0.00 0.00 0.00 83 1016.0
20260506143901 13 113 4.8 4.8 0.00 0.00 0.00 85 1016.0
20260506143355 13 158 4.8 4.8 0.00 0.00 0.00 84 1015.8
20260506142831 14 180 4.8 4.8 0.00 0.00 0.00 83 1015.8
20260506141311 13 113 3.2 3.2 0.00 0.00 0.00 87 1015.8
20260506140806 13 270 4.8 4.8 0.00 0.00 0.00 88 1015.8
20260506135750 12 135 4.8 4.8 0.00 0.00 0.00 88 1015.8
20260506135246 12 180 3.2 3.2 0.00 0.00 0.00 89 1015.8
20260506134741 12 158 4.8 4.8 0.00 0.00 0.00 89 1015.7
20260506134236 12 135 3.2 3.2 0.00 0.00 0.00 89 1015.7
20260506133730 12 135 4.8 4.8 0.00 0.00 0.00 91 1015.7
20260506132716 11 180 4.8 4.8 0.00 0.00 0.00 91 1015.7
20260506132211 11 158 4.8 4.8 0.00 0.00 0.00 92 1015.5
20260506131706 11 158 6.4 6.4 0.00 0.00 0.00 92 1015.5
20260506131201 11 158 6.4 6.4 0.00 0.00 0.00 92 1015.5
20260506130651 11 113 6.4 6.4 0.00 0.00 0.00 92 1015.5
20260506130146 11 158 4.8 4.8 0.00 0.00 0.00 92 1015.3
20260506125641 11 180 4.8 4.8 0.00 0.00 0.00 92 1015.3
20260506124911 11 180 4.8 4.8 0.00 0.00 0.00 92 1015.1
20260506124406 11 180 4.8 4.8 0.00 0.00 0.00 92 1015.1
20260506123901 11 180 4.8 4.8 0.00 0.00 0.00 92 1015.1
20260506122341 11 180 4.8 4.8 0.00 0.00 0.00 92 1015.0
20260506121836 11 180 4.8 4.8 0.00 0.00 0.00 91 1015.0
20260506121330 11 180 4.8 4.8 0.00 0.00 0.00 91 1015.1
20260506120316 11 180 3.2 3.2 0.00 0.00 0.00 91 1015.1
20260506115811 11 203 6.4 6.4 0.00 0.00 0.00 91 1014.9
20260506115307 11 180 6.4 6.4 0.00 0.00 0.00 91 1014.9
20260506113241 10 293 0.0 0.0 0.00 0.00 0.00 91 1015.0
20260506112736 10 270 1.6 1.6 0.00 0.00 0.00 91 1015.0
20260506112231 10 293 0.0 0.0 0.00 0.00 0.00 90 1014.8
20260506111721 10 315 0.0 0.0 0.00 0.00 0.00 90 1014.8
20260506111216 10 293 0.0 0.0 0.00 0.00 0.00 90 1014.7
20260506110711 10 270 0.0 0.0 0.00 0.00 0.00 89 1014.7
20260506110206 10 270 0.0 0.0 0.00 0.00 0.00 89 1014.8
20260506105656 10 293 0.0 0.0 0.00 0.00 0.00 89 1014.8
20260506104646 10 315 0.0 0.0 0.00 0.00 0.00 89 1014.9
20260506103636 10 293 0.0 0.0 0.00 0.00 0.00 88 1014.7
20260506103126 10 338 0.0 0.0 0.00 0.00 0.00 88 1014.7
20260506102621 10 315 0.0 0.0 0.00 0.00 0.00 87 1014.7
20260506101611 10 315 0.0 0.0 0.00 0.00 0.00 87 1014.7
20260506101106 10 293 0.0 0.0 0.00 0.00 0.00 86 1014.8
20260506100556 10 315 0.0 0.0 0.00 0.00 0.00 85 1014.8
20260506100051 10 338 0.0 0.0 0.00 0.00 0.00 84 1014.9
20260506095546 10 338 0.0 0.0 0.00 0.00 0.00 84 1014.9
20260506095041 10 293 0.0 0.0 0.00 0.00 0.00 84 1014.8
20260506094536 10 315 3.2 3.2 0.00 0.00 0.00 83 1014.8
20260506094026 10 315 3.2 3.2 0.00 0.00 0.00 81 1014.8
20260506093521 10 315 3.2 3.2 0.00 0.00 0.00 80 1015.0
20260506093016 10 293 0.0 0.0 0.00 0.00 0.00 78 1015.0
20260506092511 10 293 0.0 0.0 0.00 0.00 0.00 78 1015.1
20260506092006 10 293 0.0 0.0 0.00 0.00 0.00 76 1015.1
20260506091456 10 315 0.0 0.0 0.00 0.00 0.00 76 1015.1
20260506090951 11 315 0.0 0.0 0.00 0.00 0.00 76 1015.0
20260506090446 11 315 0.0 0.0 0.00 0.00 0.00 77 1015.0
20260506085941 11 293 0.0 0.0 0.00 0.00 0.00 78 1015.0
20260506084926 11 315 3.2 3.2 0.00 0.00 0.00 79 1015.2
20260506084421 11 338 3.2 3.2 0.00 0.00 0.00 80 1015.2
20260506083916 11 270 1.6 1.6 0.00 0.00 0.00 79 1015.2
20260506083411 11 270 3.2 3.2 0.00 0.00 0.00 79 1015.1
20260506082906 11 293 6.4 6.4 0.00 0.00 0.00 81 1015.1
20260506082356 11 293 6.4 6.4 0.00 0.00 0.00 82 1015.2
20260506081851 11 315 6.4 6.4 0.00 0.00 0.00 81 1015.2
20260506081346 12 270 8.0 8.0 0.00 0.00 0.00 83 1015.5
20260506073256 11 293 6.4 6.4 0.00 0.00 0.00 88 1015.3
20260506072751 11 293 8.0 8.0 0.00 0.00 0.00 90 1015.3
20260506072246 11 225 6.4 6.4 0.00 0.00 0.00 89 1015.2
20260506071236 11 270 6.4 6.4 0.00 0.00 0.00 90 1015.0
20260506070726 11 248 6.4 6.4 0.00 0.00 0.00 90 1015.0
20260506070221 11 225 8.0 8.0 0.00 0.00 0.00 90 1015.1
20260506062131 11 270 6.4 6.4 0.00 0.00 0.18 89 1014.9
20260506060821 11 270 6.4 6.4 0.00 0.00 0.18 89 1014.8
20260506050201 12 270 6.4 6.4 0.00 0.00 0.18 88 1014.2